Simultaneous Nadir Overpasses (SNOs) Predictions

Prediction of SNOs between LANDSAT-8 and METOP-A Satellite Orbit:

Table of predicted SNOs for the next 14.0 days since TLE Epoch: 3/23/2017
Index Date (LANDSAT-8) Time (LANDSAT-8) Lat,Lon (LANDSAT-8) SZA (LANDSAT-8 ) Date (METOP-A) Time (METOP-A) Lat,Lon (METOP-A) SZA (METOP-A ) Distance(km) Time Diff (sec)
1 03/25/2017 11:13:31 81.13, 51.14 81.01 03/25/2017 11:12:20 81.12, 50.98 80.96 2.83 71
2 03/25/2017 12:02:57 -81.15,-140.95 98.97 03/25/2017 12:02:59 -81.15,-140.91 98.96 0.68 2
3 03/28/2017 06:47:44 81.13, 117.56 79.93 03/28/2017 06:46:42 81.13, 117.46 79.89 1.79 62
4 03/28/2017 07:37:10 -81.15, -74.49 100.05 03/28/2017 07:37:21 -81.15, -74.38 100.03 1.94 11
5 03/31/2017 02:21:56 81.13,-176.05 78.85 03/31/2017 02:21:03 81.13,-176.07 78.83 0.45 53
6 03/31/2017 03:11:22 -81.15, -8.08 101.12 03/31/2017 03:11:43 -81.14, -8.25 101.13 2.95 21
7 04/02/2017 21:56:08 81.14,-109.34 77.83 04/02/2017 21:55:24 81.14,-109.23 77.82 1.86 44
8 04/02/2017 22:45:34 -81.17, 58.66 102.13 04/02/2017 22:46:04 -81.16, 58.62 102.13 0.83 30
9 04/05/2017 17:30:21 81.13, -43.04 76.76 04/05/2017 17:29:47 81.13, -43.17 76.74 2.20 34




NCC Satellite Simultaneous Nadir Overpasses (SNOs) Prediction Service
